[[{"header":{"parameterUnit":"m.s-1","parameterCategory":1,"la1":30.2991,"la2":30.254,"lo1":-89.0895,"lo2":-89.0444,"dy":0.0017,"dx":0.0017,"nx":28,"ny":28,"refTime":"2023-11-02T09:00:00:Z","depth":0,"parameterNumber":2,"parameterNumberName":"U-component_of_WINDS"},"data":[0,0,0,0,0,0,0,0,0,0,0,0,0,0,0,0,0,0,0,0,0,0,0,0,0,0,0,0,0,0,0,0,0,0,0,0,0,0,0,0,0,0,0,0,0,0,0,0,0,0,0,0,0,0,0,0,0,0,-2.6126,-2.6127,0,-2.6236,-2.6237,-2.6238,-2.6149,-2.6145,-2.6141,-2.6138,-2.6252,-2.6258,-2.6264,0,0,0,0,0,0,0,0,0,0,0,0,0,-2.5838,-2.5844,-2.6126,-2.6127,-2.6128,-2.6236,-2.6237,-2.6239,-2.615,-2.6145,-2.614,-2.6136,-2.6249,-2.6257,-2.6265,0,0,0,0,0,0,0,0,0,0,0,0,0,-2.5957,-2.5846,-2.6125,-2.6097,-2.6095,-2.6235,-2.6237,-2.6239,-2.6151,-2.6145,-2.6139,-2.6134,-2.6247,-2.6256,-2.6266,-2.644,0,0,-2.6296,-2.63,0,0,0,0,0,0,0,0,-2.595,-2.5968,-2.61,-2.6099,-2.6098,-2.6173,-2.6177,-2.6307,-2.6152,-2.613,-2.6138,-2.6131,-2.623,-2.6241,-2.6274,-2.6446,-2.6451,-2.6297,-2.6303,-2.6307,-2.631,0,0,0,0,0,0,0,-2.5942,-2.5963,-2.6169,-2.6102,-2.6101,-2.6078,-2.6089,-2.6201,-2.621,-2.6131,-2.6125,-2.6139,-2.6228,-2.6265,-2.6276,-2.6452,-2.6297,-2.6305,-2.6312,-2.6315,-2.6773,-2.6779,0,0,0,0,0,0,-2.5937,-2.5956,-2.6166,-2.6173,-2.6009,-2.6088,-2.61,-2.6155,-2.6209,-2.6212,-2.6144,-2.6135,-2.6251,-2.6265,-2.628,-2.6489,-2.6307,-2.6316,-2.6322,-2.6767,-2.6774,-2.6781,0,0,0,0,0,0,-2.5931,-2.5956,-2.6161,-2.6063,-2.6087,-2.6099,-2.6161,-2.616,-2.6196,-2.6218,-2.622,-2.618,-2.6247,-2.6266,-2.6401,-2.6491,-2.6321,-2.633,-2.6759,-2.6769,-2.6778,-2.6907,0,0,0,0,0,0,-2.5923,-2.5955,-2.6022,-2.6065,-2.6093,-2.6282,-2.6166,-2.6166,-2.6213,-2.6202,-2.6252,-2.6255,-2.6244,-2.6387,-2.6411,-2.6502,-2.6337,-2.6751,-2.6764,-2.6775,-2.6895,-2.692,-2.6941,0,0,0,0,0,-2.5913,-2.6054,-2.6025,-2.6051,-2.6176,-2.6287,-2.6303,-2.6287,-2.6221,-2.6288,-2.6302,-2.6254,-2.6477,-2.6402,-2.6428,-2.6523,-2.6746,-2.676,-2.6774,-2.6885,-2.6915,-2.6941,0,0,0,0,0,0,-2.6021,-2.6059,-2.6028,-2.6186,-2.6234,-2.6272,-2.6356,-2.6319,-2.6387,-2.6374,-2.6351,-2.6363,-2.6506,-2.6527,-2.6443,-2.6694,-2.6601,-2.6621,-2.6676,-2.6705,-2.6728,-2.6721,-2.6346,0,0,0,0,0,-2.6063,-2.615,-2.6178,-2.6315,-2.634,-2.6344,-2.6392,-2.6375,-2.6424,-2.6444,-2.6468,-2.6517,-2.6598,-2.6652,-2.6728,-2.6896,-2.6907,-2.6975,-2.6998,-2.7016,-2.7035,-2.7127,-2.7158,-2.6827,-2.6827,-2.6827,0,0,-2.6151,-2.6183,-2.6239,-2.6338,-2.6372,-2.6463,-2.6362,-2.6462,-2.6529,-2.6459,-2.6589,-2.6608,-2.6661,-2.6814,-2.6883,-2.6836,-2.7128,-2.7034,-2.7049,-2.7058,-2.7144,-2.7176,-2.7204,-2.6837,-2.6835,-2.6833,0,0,-2.6359,-2.6391,-2.6509,-2.6546,-2.66,-2.6601,-2.663,-2.6673,-2.6683,-2.6812,-2.6761,-2.684,-2.698,-2.7021,-2.706,-2.7281,-2.724,-2.7306,-2.7428,-2.7518,-2.7544,-2.7567,-2.7648,-2.7677,-2.7324,-2.7324,-2.7324,0,-2.6462,-2.6597,-2.6575,-2.6679,-2.6724,-2.6663,-2.6783,-2.682,-2.6896,-2.6929,-2.6875,-2.705,-2.7081,-2.7244,-2.7298,-2.733,-2.7363,-2.7302,-2.7541,-2.7564,-2.7586,-2.7663,-2.7693,-2.7332,-2.7331,-2.733,-2.7329,0,-2.6722,-2.6816,-2.6905,-2.698,-2.7035,-2.7146,-2.7141,-2.7199,-2.7177,-2.7184,-2.7317,-2.7352,-2.7434,-2.747,-2.745,-2.763,-2.76,-2.7544,-2.745,-2.7626,-2.7698,-2.7727,-2.7343,-2.734,-2.7338,-2.7336,0,0,-2.7003,-2.7064,-2.7097,-2.7131,-2.7185,-2.7257,-2.7365,-2.7446,-2.7497,-2.755,-2.7642,-2.7761,-2.7709,-2.7754,-2.7736,-2.7815,-2.799,-2.775,-2.7751,-2.7795,-2.8193,-2.8237,-2.8271,-2.7961,-2.7967,-2.7971,-2.8189,0,-2.7215,-2.7405,-2.7387,-2.7567,-2.7654,-2.7596,-2.7691,-2.7734,-2.7743,-2.7818,-2.7827,-2.7913,-2.7838,-2.7865,-2.7939,-2.7953,-2.807,-2.7937,-2.8048,-2.8052,-2.8039,-2.8308,-2.8355,-2.8559,-2.8217,-2.8222,-2.8225,0,-2.7489,-2.7552,-2.7741,-2.7782,-2.7818,-2.7903,-2.7975,-2.8047,-2.8095,-2.8096,-2.8145,-2.8114,-2.8223,-2.8124,-2.8275,-2.8185,-2.8228,-2.8242,-2.8249,-2.8261,-2.8152,-2.833,-2.8624,-2.8655,-2.8269,-2.8265,-2.8262,0,-2.7678,-2.781,-2.7941,-2.7971,-2.8021,-2.8083,-2.8107,-2.8149,-2.8198,-2.8261,-2.8293,-2.8367,-2.8408,-2.8466,-2.8457,-2.8385,-2.8611,-2.8511,-2.8616,-2.8617,-2.8669,-2.8667,-2.8977,-2.8693,-2.8692,-2.8692,-2.8691,0,-2.7919,-2.8037,-2.8027,-2.8107,-2.8238,-2.8216,-2.8346,-2.8362,-2.84,-2.8483,-2.8436,-2.8515,-2.8495,-2.8573,-2.8566,-2.8693,-2.8711,-2.8716,-2.8713,-2.8722,-2.8722,-2.8753,-2.8739,-2.87,-2.8698,-2.8696,-2.8695,0,-2.8154,-2.8152,-2.829,-2.8326,-2.8338,-2.8433,-2.8464,-2.854,-2.8543,-2.8649,-2.8672,-2.8679,-2.8768,-2.8763,-2.8864,-2.8859,-2.9016,-2.8995,-2.9001,-2.8997,-2.9104,-2.9095,-2.9447,-2.9493,-2.9177,-2.918,-2.9182,0,-2.8309,-2.8399,-2.8444,-2.8496,-2.8525,-2.8609,-2.8659,-2.8639,-2.8693,-2.8754,-2.8823,-2.8908,-2.8975,-2.912,-2.9135,-2.9211,-2.9194,-2.9311,-2.9205,-2.9212,-2.9199,-2.9195,-2.9205,-2.9334,-2.9337,-2.934,-2.9343,0,-2.8586,-2.858,-2.8654,-2.8728,-2.8788,-2.8845,-2.8897,-2.8942,-2.8929,-2.8991,-2.9082,-2.9134,-2.9237,-2.9322,-2.9395,-2.9419,-2.9381,-2.9375,-2.9404,-2.9416,-2.9417,-2.942,-2.9061,-2.9368,-2.9366,-2.9364,-2.9362,-2.9361,-2.8788,-2.8865,-2.891,-2.8993,-2.903,-2.908,-2.9153,-2.9166,-2.9241,-2.9323,-2.9307,-2.9409,-2.9454,-2.9548,-2.9579,-2.9659,-2.9617,-2.9658,-2.9669,-2.9681,-2.9694,-2.9401,-2.9672,-2.9671,-2.967,-2.9669,-2.9669,0,-2.9064,-2.9089,-2.9166,-2.9241,-2.9307,-2.9261,-2.9316,-2.9375,-2.9466,-2.951,-2.9577,-2.9682,-2.9764,-2.9783,-2.9862,-2.9922,-2.9906,-2.9944,-2.9941,-2.9948,-2.9726,-2.9694,-2.9956,-2.9956,-2.9956,-2.9956,-2.9956,-2.9956,-2.9216,-2.9345,-2.9345,-2.9491,-2.9515,-2.9615,-2.9651,-2.9696,-2.9732,-2.9851,-2.9919,-2.993,-2.9965,-3.0046,-3.012,-3.0123,-3.0156,-3.0202,-3.0199,-2.9992,-2.9963,-2.9936,-2.9906,-3.0208,-3.0208,-3.0414,-3.0416,-3.0417]},{"header":{"parameterUnit":"m.s-1","parameterCategory":1,"la1":30.2991,"la2":30.254,"lo1":-89.0895,"lo2":-89.0444,"dy":0.0017,"dx":0.0017,"nx":28,"ny":28,"refTime":"2023-11-02T09:00:00:Z","depth":0,"parameterNumber":3,"parameterNumberName":"V-component_of_WINDS"},"data":[0,0,0,0,0,0,0,0,0,0,0,0,0,0,0,0,0,0,0,0,0,0,0,0,0,0,0,0,0,0,0,0,0,0,0,0,0,0,0,0,0,0,0,0,0,0,0,0,0,0,0,0,0,0,0,0,0,0,-5.248,-5.2481,0,-5.2554,-5.2555,-5.2556,-5.2507,-5.2505,-5.2503,-5.2501,-5.2571,-5.2574,-5.2578,0,0,0,0,0,0,0,0,0,0,0,0,0,-5.2291,-5.2295,-5.248,-5.2481,-5.2482,-5.2554,-5.2555,-5.2556,-5.2508,-5.2505,-5.2502,-5.25,-5.2569,-5.2574,-5.2579,0,0,0,0,0,0,0,0,0,0,0,0,0,-5.237,-5.2296,-5.248,-5.2467,-5.2466,-5.2554,-5.2555,-5.2556,-5.2508,-5.2505,-5.2501,-5.2498,-5.2568,-5.2573,-5.2579,-5.2682,0,0,-5.2597,-5.26,0,0,0,0,0,0,0,0,-5.2366,-5.2377,-5.2468,-5.2468,-5.2468,-5.2518,-5.2514,-5.2598,-5.2509,-5.2492,-5.2501,-5.2497,-5.2555,-5.2562,-5.2583,-5.2685,-5.2688,-5.2598,-5.2601,-5.2604,-5.2605,0,0,0,0,0,0,0,-5.236,-5.2373,-5.2509,-5.2469,-5.2469,-5.2455,-5.2462,-5.2529,-5.2541,-5.2493,-5.249,-5.25,-5.2555,-5.2577,-5.2584,-5.2689,-5.2598,-5.2603,-5.2606,-5.2609,-5.2875,-5.2879,0,0,0,0,0,0,-5.2357,-5.2369,-5.2507,-5.2511,-5.2408,-5.2461,-5.247,-5.2505,-5.254,-5.2543,-5.2502,-5.2497,-5.2569,-5.2577,-5.2587,-5.2706,-5.2604,-5.2609,-5.2613,-5.2872,-5.2876,-5.288,0,0,0,0,0,0,-5.2353,-5.2369,-5.2504,-5.244,-5.2456,-5.2468,-5.2508,-5.2508,-5.2531,-5.2547,-5.2549,-5.2524,-5.2567,-5.2578,-5.2658,-5.2708,-5.2612,-5.2617,-5.2868,-5.2873,-5.2878,-5.2949,0,0,0,0,0,0,-5.2348,-5.2368,-5.2409,-5.2441,-5.2459,-5.2577,-5.2512,-5.2512,-5.2542,-5.2536,-5.2568,-5.257,-5.2565,-5.265,-5.2664,-5.2715,-5.2622,-5.2863,-5.287,-5.2876,-5.2942,-5.2956,-5.2968,0,0,0,0,0,-5.2341,-5.2426,-5.2412,-5.2428,-5.2511,-5.258,-5.259,-5.2584,-5.2546,-5.2586,-5.2596,-5.2569,-5.2701,-5.2658,-5.2674,-5.2727,-5.286,-5.2868,-5.2876,-5.2936,-5.2953,-5.2967,0,0,0,0,0,0,-5.2398,-5.243,-5.2414,-5.2512,-5.2544,-5.2571,-5.2621,-5.2603,-5.2644,-5.2636,-5.2625,-5.2633,-5.2716,-5.273,-5.2682,-5.2826,-5.2774,-5.2786,-5.2814,-5.2831,-5.2843,-5.2837,-5.2627,0,0,0,0,0,-5.2422,-5.2478,-5.2501,-5.2585,-5.2602,-5.2609,-5.2639,-5.2632,-5.2663,-5.2676,-5.2692,-5.2722,-5.2769,-5.2801,-5.2846,-5.2944,-5.2948,-5.2988,-5.3001,-5.3012,-5.3021,-5.307,-5.3087,-5.2906,-5.2906,-5.2906,0,0,-5.2472,-5.2496,-5.2532,-5.2597,-5.2621,-5.2676,-5.2621,-5.2682,-5.2721,-5.2684,-5.276,-5.2773,-5.2806,-5.2894,-5.2934,-5.2908,-5.3072,-5.3022,-5.303,-5.3034,-5.308,-5.3097,-5.3113,-5.2912,-5.2911,-5.291,0,0,-5.2591,-5.2617,-5.2688,-5.2712,-5.2749,-5.2753,-5.277,-5.2801,-5.2808,-5.2885,-5.2857,-5.2903,-5.2987,-5.301,-5.3033,-5.3159,-5.3135,-5.3174,-5.3241,-5.3289,-5.3303,-5.3316,-5.3358,-5.3373,-5.3184,-5.3184,-5.3184,0,-5.2648,-5.2732,-5.2726,-5.2789,-5.2817,-5.2788,-5.2858,-5.2882,-5.2931,-5.295,-5.2921,-5.3023,-5.3043,-5.3135,-5.3166,-5.3187,-5.3203,-5.317,-5.3302,-5.3315,-5.3326,-5.3366,-5.3382,-5.3189,-5.3188,-5.3188,-5.3187,0,-5.2798,-5.2856,-5.2909,-5.2958,-5.2993,-5.3059,-5.3061,-5.3096,-5.3085,-5.3092,-5.3168,-5.3191,-5.3239,-5.3261,-5.3251,-5.3351,-5.3333,-5.3304,-5.325,-5.3348,-5.3385,-5.34,-5.3195,-5.3193,-5.3192,-5.3191,0,0,-5.2954,-5.2999,-5.3018,-5.3039,-5.3077,-5.312,-5.3184,-5.3233,-5.3261,-5.3296,-5.3347,-5.3418,-5.339,-5.3416,-5.3408,-5.3451,-5.3546,-5.3415,-5.3416,-5.3436,-5.3653,-5.3673,-5.3691,-5.353,-5.3533,-5.3536,-5.3649,0,-5.3073,-5.3186,-5.3182,-5.3286,-5.3337,-5.331,-5.3365,-5.3392,-5.34,-5.3443,-5.345,-5.3499,-5.3461,-5.3476,-5.3517,-5.3525,-5.3588,-5.3517,-5.3575,-5.3577,-5.3565,-5.3711,-5.3733,-5.384,-5.3664,-5.3667,-5.3669,0,-5.3226,-5.3267,-5.3376,-5.3404,-5.3426,-5.3476,-5.3518,-5.3561,-5.3591,-5.3593,-5.3621,-5.3606,-5.3668,-5.3615,-5.3697,-5.3649,-5.3672,-5.368,-5.3684,-5.3687,-5.3627,-5.3715,-5.3874,-5.3889,-5.3692,-5.369,-5.3688,0,-5.3326,-5.3407,-5.3483,-5.3502,-5.3537,-5.3572,-5.3588,-5.3615,-5.3643,-5.368,-5.3698,-5.3741,-5.3764,-5.3797,-5.3793,-5.3755,-5.3876,-5.3823,-5.3876,-5.3876,-5.3901,-5.3899,-5.4063,-5.3921,-5.3921,-5.392,-5.392,0,-5.3457,-5.3524,-5.3527,-5.3574,-5.3647,-5.3641,-5.3713,-5.3725,-5.3749,-5.3795,-5.3774,-5.3817,-5.381,-5.3853,-5.385,-5.3917,-5.3928,-5.3929,-5.3927,-5.393,-5.3929,-5.3943,-5.3934,-5.3925,-5.3924,-5.3923,-5.3922,0,-5.3579,-5.3585,-5.3664,-5.3692,-5.37,-5.3752,-5.3774,-5.3816,-5.3822,-5.388,-5.3893,-5.3901,-5.395,-5.395,-5.4005,-5.4003,-5.4084,-5.4075,-5.4075,-5.4072,-5.4124,-5.4118,-5.43,-5.4322,-5.4168,-5.417,-5.4171,0,-5.3662,-5.3713,-5.3745,-5.3775,-5.3793,-5.3842,-5.3871,-5.3866,-5.3897,-5.3934,-5.3971,-5.4018,-5.4055,-5.4134,-5.4143,-5.4184,-5.4174,-5.4235,-5.418,-5.418,-5.4171,-5.4167,-5.4171,-5.4245,-5.4247,-5.4248,-5.4249,0,-5.3806,-5.3806,-5.3849,-5.3893,-5.3929,-5.3963,-5.3994,-5.402,-5.4018,-5.4053,-5.4103,-5.4132,-5.4189,-5.4234,-5.4274,-5.4288,-5.4267,-5.4267,-5.4281,-5.4282,-5.4279,-5.4278,-5.4101,-5.4262,-5.4261,-5.426,-5.4259,-5.4258,-5.3908,-5.3951,-5.3981,-5.4029,-5.4052,-5.4082,-5.4122,-5.4133,-5.4175,-5.4222,-5.4216,-5.4271,-5.4297,-5.4348,-5.4366,-5.4407,-5.4385,-5.4406,-5.4411,-5.4416,-5.442,-5.4275,-5.4414,-5.4414,-5.4414,-5.4413,-5.4413,0,-5.4049,-5.4066,-5.4111,-5.4156,-5.4193,-5.4173,-5.4206,-5.4238,-5.4287,-5.4314,-5.4351,-5.4407,-5.4451,-5.4464,-5.4505,-5.4536,-5.4527,-5.4546,-5.4543,-5.4545,-5.4438,-5.4421,-5.4553,-5.4553,-5.4552,-5.4552,-5.4552,-5.4552,-5.4126,-5.4197,-5.42,-5.4281,-5.4297,-5.4352,-5.4372,-5.4398,-5.4419,-5.4483,-5.452,-5.4529,-5.4549,-5.4592,-5.463,-5.4632,-5.4647,-5.467,-5.4668,-5.4568,-5.4553,-5.454,-5.4523,-5.4674,-5.4674,-5.4771,-5.4772,-5.4773]}]]